{"data":{"norad_id":53852,"intl_designator":"2022-114AL","name":"STARLINK-4797","alt_names":[],"object_type":"PAYLOAD","status":"ACTIVE","operator":null,"country":"US","launch_date":"2022-09-19","launch_site_code":"AFETR","launch_vehicle":null,"mission":null,"orbit_class":"UNKNOWN","rcs_meters":null,"size_class":null,"mass_kg":null,"dimensions":null,"purposes":["comms"],"wikipedia_slug":null,"has_3d_model":false,"image_url":null,"decayed_at":null,"tle_current":{"epoch":"2026-05-25T03:16:25.070592Z","epoch_age_seconds":66472,"freshness":"FRESH","line1":"1 53852U 22114AL  26145.13640128  .00000784  00000+0  67346-4 0  9994","line2":"2 53852  53.2135 305.8663 0001602  94.8011 265.3164 15.08836431204582","mean_motion":15.08836431,"eccentricity":0.0001602,"inclination_deg":53.2135,"raan_deg":305.8663,"arg_perigee_deg":94.8011,"mean_anomaly_deg":265.3164,"bstar":6.7346e-5,"rev_number":20458,"period_min":95.43778042565,"perigee_km":538.64605180487,"apogee_km":540.86254417675,"semimajor_km":6917.8912979908,"source":"CELESTRAK","updated_at":"2026-05-25T13:38:17.576760Z"}}}